Location: Trebic
(49.2170°N, 15.8830°E)
Time: 23:39:35
(UTC+02:00)

Transit 4A - Pass Details

Date: 31 August 2019
Orbit: 867 x 978 km, 66.8° (Epoch: 23 October)

Event Time Altitude Azimuth Distance (km) Brightness Sun altitude
Rises 15:58:58 0° 175° (S) 3,658 11.3 34.5°
Reaches altitude 10° 16:01:53 10° 163° (SSE) 2,719 10.6 34.0°
Maximum altitude 16:07:05 27° 109° (ESE) 1,775 9.3 33.3°
Drops below altitude 10° 16:12:17 10° 54° (NE) 2,721 9.9 32.6°
Sets 16:15:12 0° 43° (NE) 3,662 10.5 32.1°
